Atlanta Fulton, GA

9:46 AM EST on November 20, 2019 (GMT -0500)
Fulton County-Brown

Weather History for KFTY - September, 2019

Change the Weather History Date:

Sunday, September 1, 2019

  Actual Average Record
Temperature  
Mean Temperature 79 °F 77 °F  
Max Temperature 90 °F 87 °F 93 °F (2011)
Min Temperature 68 °F 67 °F 57 °F (1999)
Cooling Degree Days 14 12  
Month to date cooling degree days 14 12  
Year to date cooling degree days 1730 1449  
Growing Degree Days 28 (Base 50)    
Moisture  
Dew Point 66 °F    
Average Humidity 68    
Maximum Humidity 90    
Minimum Humidity 46    
Precipitation  
Precipitation 0.00 in 0.10 in 4.20 in (2000)
Month to date precipitation 0.00 0.10  
Year to date precipitation 30.29 35.52  
Sea Level Pressure  
Sea Level Pressure 30.10 in    
Wind  
Wind Speed 5 mph (ENE)    
Max Wind Speed 15 mph    
Max Gust Speed 18 mph    
Visibility 10 miles    
Events      
T = Trace of Precipitation, MM = Missing Value Source: NWS Daily Summary

Daily Weather History Graph

Daily Weather History Graph

Search for Another Location

Airport or City:

Astronomy

Sep. 01, 2019 Rise Set
Actual Time 7:11 AM EDT 8:03 PM EDT
Civil Twilight 6:46 AM EDT 8:29 PM EDT
Nautical Twilight 6:16 AM EDT 8:59 PM EDT
Astronomical Twilight 5:45 AM EDT 9:30 PM EDT
Moon 9:35 AM EDT (9/1) 9:58 PM EDT (9/1)
Length of Visible Light 13h 43m
Length of Day
12h 52m
Waxing Crescent, 8% of the Moon is Illuminated
Sep 1
Waxing Crescent
Sep 5
First Quarter
Sep 14
Full
Sep 21
Last Quarter
Sep 28
New

Hourly Weather History & Observations

Time (EDT) Temp. Heat Index Dew Point Humidity Pressure Visibility Wind Dir Wind Speed Gust Speed Precip Events Conditions
12:53 AM 73.9 °F - 66.0 °F 76% 30.10 in 10.0 mi Calm Calm - N/A   Partly Cloudy
1:53 AM 73.0 °F - 66.0 °F 79% 30.10 in 10.0 mi Calm Calm - N/A   Clear
2:53 AM 70.0 °F - 66.0 °F 87% 30.10 in 10.0 mi Calm Calm - N/A   Partly Cloudy
3:53 AM 69.1 °F - 66.0 °F 90% 30.09 in 10.0 mi Calm Calm - N/A   Clear
4:53 AM 69.1 °F - 66.0 °F 90% 30.09 in 10.0 mi North 3.5 mph - N/A   Scattered Clouds
5:53 AM 68.0 °F - 64.9 °F 90% 30.09 in 10.0 mi NNE 4.6 mph - N/A   Clear
6:53 AM 70.0 °F - 66.0 °F 87% 30.11 in 10.0 mi NNE 5.8 mph - N/A   Clear
7:53 AM 71.1 °F - 66.0 °F 84% 30.13 in 10.0 mi NE 4.6 mph - N/A   Mostly Cloudy
8:53 AM 73.9 °F - 66.9 °F 79% 30.14 in 10.0 mi NE 4.6 mph - N/A   Mostly Cloudy
9:11 AM 75.9 °F - 66.9 °F 74% 30.17 in 10.0 mi ENE 6.9 mph - N/A   Mostly Cloudy
9:21 AM 77.0 °F - 66.9 °F 71% 30.18 in 10.0 mi ENE 5.8 mph - N/A   Mostly Cloudy
9:53 AM 78.1 °F - 68.0 °F 71% 30.15 in 10.0 mi ENE 10.4 mph - N/A   Mostly Cloudy
10:53 AM 80.1 °F 82.7 °F 68.0 °F 67% 30.15 in 10.0 mi East 8.1 mph - N/A   Mostly Cloudy
11:53 AM 82.0 °F 84.9 °F 68.0 °F 62% 30.14 in 10.0 mi East 9.2 mph - N/A   Mostly Cloudy
12:53 PM 86.0 °F 88.2 °F 66.0 °F 51% 30.12 in 10.0 mi East 12.7 mph - N/A   Scattered Clouds
1:53 PM 88.0 °F 89.6 °F 64.9 °F 46% 30.10 in 10.0 mi ENE 9.2 mph - N/A   Clear
2:53 PM 87.1 °F 88.9 °F 64.9 °F 48% 30.08 in 10.0 mi East 9.2 mph - N/A   Scattered Clouds
3:53 PM 87.1 °F 88.9 °F 64.9 °F 48% 30.06 in 10.0 mi ENE 8.1 mph - N/A   Mostly Cloudy
4:53 PM 87.1 °F 88.3 °F 64.0 °F 46% 30.04 in 10.0 mi East 8.1 mph - N/A   Mostly Cloudy
5:53 PM 87.1 °F 88.9 °F 64.9 °F 48% 30.04 in 10.0 mi East 6.9 mph - N/A   Partly Cloudy
6:53 PM 86.0 °F 87.6 °F 64.9 °F 49% 30.05 in 10.0 mi ESE 5.8 mph - N/A   Clear
7:53 PM 84.9 °F 86.6 °F 64.9 °F 51% 30.04 in 10.0 mi East 4.6 mph - N/A   Clear
8:53 PM 82.9 °F 84.6 °F 64.9 °F 54% 30.05 in 10.0 mi East 5.8 mph - N/A   Clear
9:53 PM 79.0 °F - 64.9 °F 62% 30.07 in 10.0 mi Calm Calm - N/A   Clear
10:53 PM 81.0 °F 82.5 °F 64.0 °F 56% 30.08 in 10.0 mi East 4.6 mph - N/A   Clear
11:53 PM 75.0 °F - 64.9 °F 71% 30.07 in 10.0 mi Calm Calm - N/A   Clear